Regional Weather Roundup
Issued by NWS

Home | Current Version | Previous Version | Graphics & Text | Print | Product List | Glossary On
Versions: 1 2 3 4 5 6 7 8 9 10 11 12 13 14 15 16 17 18 19 20 21 22 23 24 25 26 27 28 29 30 31 32 33 34 35 36 37 38 39 40 41 42 43 44 45 46 47 48 49 50
000
ASUS45 KBOU 012207
RWRCO

WEATHER ROUNDUP FOR COLORADO
NATIONAL WEATHER SERVICE DENVER/BOULDER CO
400 PM MDT TUE SEP 01 2015

NOTE: "FAIR" INDICATES FEW OR NO CLOUDS BELOW 12000 FEET WITH NO
SIGNIFICANT WEATHER AND/OR OBSTRUCTIONS TO VISIBILITY.

COZ001>005-013-030-031-012300-
...NORTHWEST COLORADO...

CITY           SKY/WX    TMP DP  RH WIND       PRES   REMARKS
CRAIG          PTSUNNY   80  44  27 S14       30.14S
HAYDEN         NOT AVBL
MEEKER         TSTM      66  53  63 S9        30.21R
MOUNT WERNER   NOT AVBL
STEAMBOAT SPGS PTSUNNY   71  46  41 E8        30.21S
WALDEN         MOSUNNY   70  39  32 W9        30.29F
$$

COZ006>008-011-012300-
...WEST CENTRAL VALLEYS...

CITY           SKY/WX    TMP DP  RH WIND       PRES   REMARKS
GRAND JUNCTION MOSUNNY   85  44  23 VRB3      30.04F
MONTROSE       MOSUNNY   83  44  25 N9        30.10F
EAGLE          MOSUNNY   79  39  24 W12       30.20F
RIFLE          MOSUNNY   80  48  32 VRB5      30.10F
DELTA          MOSUNNY   88  43  20 SW5       30.06F
NUCLA          MOSUNNY   84  37  18 SW3G18    30.17S
$$

COZ017>023-064>068-012300-
...SOUTHWEST COLORADO...

CITY           SKY/WX    TMP DP  RH WIND       PRES   REMARKS
DURANGO        MOSUNNY   81  40  23 SW9       30.20F
CORTEZ         SUNNY     87  40  19 S12       30.13F
PAGOSA SPRINGS MOSUNNY   79  35  20 W8G18     30.28S
TELLURIDE      LGT RAIN  67  43  41 NW5       30.39S
WOLF CREEK PAS MOSUNNY   54  36  50 S15G28    30.61S
$$

COZ009-010-012-014-032>034-037-058>063-012300-
...CENTRAL COLORADO...

CITY           SKY/WX    TMP DP  RH WIND       PRES   REMARKS
ASPEN          MOSUNNY   72  39  30 CALM      30.27F
BUENA VISTA    MOSUNNY   74  35  24 N3        30.28F
COPPER MTN     PTSUNNY   59  28  31 W10G23    30.60S
BERTHOUD PASS  LGT RAIN  46  34  61 N7        30.66R
COTTONWOOD PAS PTSUNNY   64  41  42 NW3       30.42F
GUNNISON       MOSUNNY   75  36  23 N3        30.26F
KREMMLING      RAIN      57  41  54 W9G25     30.33R
LEADVILLE      PTSUNNY   65  34  31 E8        30.43F
SALIDA         PTSUNNY   78  38  23 N15G28    30.29S
SUNLIGHT       PTSUNNY   63  45  51 CALM      30.53S
WILKERSON PASS PTSUNNY   59  30  33 CALM      30.57S
$$

COZ069>075-012300-
...SAN LUIS VALLEY/SANGRE DE CRISTO MOUNTAINS...

CITY           SKY/WX    TMP DP  RH WIND       PRES   REMARKS
ALAMOSA        MOSUNNY   78  36  21 S8G17     30.25F
LA VETA PASS   PTSUNNY   68  34  28 S5        30.46F
SAGUACHE       PTSUNNY   72  41  33 SW15      30.28S
$$

COZ035-036-038>040-012300-
...NORTHERN COLORADO FRONT RANGE...

CITY           SKY/WX    TMP DP  RH WIND       PRES   REMARKS
DENVER INTL AP MOSUNNY   90  37  15 VRB5      30.05F
DMNS CITY PARK   N/A     88  37  16 SE7G14    30.04S
AURORA         MOSUNNY   87  40  18 S6        30.07F
FRONT RANGE AP MOSUNNY   86  34  15 SE5       30.07F
ERIE MUNI ARPT PTSUNNY   87  33  14 NE10      30.02S
BOULDER MUN AP PTSUNNY   86  37  17 N6        30.03S
CENTENNIAL     PTSUNNY   85  36  17 VRB5      30.09F
BROOMFIELD     PTSUNNY   86  36  16 E6        30.07F
FORT COLLINS   MOSUNNY   88  43  20 CALM      30.00S
LONGMONT       MOSUNNY   88  35  15 N8        30.04S
$$

COZ041-046-047-076>085-087-088-012300-
...PIKES PEAK/PALMER DIVIDE AND SOUTHERN FOOTHILLS...

CITY           SKY/WX    TMP DP  RH WIND       PRES   REMARKS
COLO. SPRINGS  PTSUNNY   82  39  21 SE9       30.13F
A. F. ACADEMY  PTSUNNY   84  38  20 VRB6      30.14F
ELLICOTT       MOSUNNY  N/A N/A N/A VRB5G21   30.12F
FALCON         MOSUNNY   79  38  23 MISG      30.20S
FORT CARSON    MOSUNNY   85  45  24 E9        30.10F
LIMON          SUNNY     87  40  19 N5        30.08F
MONUMENT HILL  MOSUNNY   77  34  20 CALM      30.21S
TRINIDAD       PTSUNNY   87  39  18 VRB7      30.09F
$$

COZ042>045-048>051-090-091-012300-
...NORTHEAST COLORADO...

CITY           SKY/WX    TMP DP  RH WIND       PRES   REMARKS
GREELEY ARPT   SUNNY     91  39  16 S7        30.00F
AKRON          SUNNY     90  31  12 W15G21    30.01F
BURLINGTON     SUNNY     86  52  30 E7        30.00F
WRAY           CLOUDY    96  35  11 W7        29.95F
STERLING       NOT AVBL
HOLYOKE        SUNNY     93  52  24 SE12G17   29.94F
FORT MORGAN    SUNNY     91  35  13 S5        30.00F
$$

COZ086-089-092>099-012300-
...SOUTHEAST COLORADO...

CITY           SKY/WX    TMP DP  RH WIND       PRES   REMARKS
PUEBLO         MOSUNNY   94  36  13 CALM      30.00F
LA JUNTA       MOSUNNY   93  47  20 VRB7      29.98F
LAMAR          SUNNY     92  57  30 SE5       29.94F
SPRINGFIELD      N/A     86  53  32 W3        30.02F
$$



USA.gov is the U.S. government's official web portal to all federal, state and local government web resources and services.